星链-32171 (STARLINK-32171)

导读 | 豆包AI

STARLINK-32171是美国SpaceX星链互联网卫星星座的组成部分,于2024年8月2日发射升空,归属美国所有。星链项目旨在为全球提供高速低延迟互联网服务,该卫星入轨后,进一步拓展了星链星座的覆盖范围与服务能力,助力全球偏远地区、移动场景的网络接入与通信保障。

Basic Information
目录编号:
60332
目录名称:
STARLINK-32171
国际标识:
2024-136D
轨道中心:
EARTH
卫星名称:
星链-32171 (STARLINK-32171)
卫星全名:
星链-32171 (STARLINK-32171)
卫星状态:
在轨 (已飞行637 天)
发射日期:
2024-08-02 UTC
国别 :
美国 (US)
星等 :
--
Orbit Information
数据来源 国际轨道数据
星历时间: 2026-04-30T22:05:59+0800
14小时前
查看轨道信息
半长轴: 6853.397km
偏心率: 0.0000629
轨道倾角: 53.160°
近地点辐角 127.003°
升交点赤经 194.386°
平近点角 233.103°
近地点: 474.828km
远地点: 475.692km
周期: 94.106分钟
每日圈数: 15.30185
Detailed Information
卫星平台:
Starlink v2.0 mini
运营商:
太空探索技术公司
运营商所在国:
美国
制造商(研发单位):
太空探索技术公司
制造商所在国:
美国
使用方式:
暂无
Satellite Introduction
星链(Starlink)计划是由太空探索技术公司(SpaceX)提出的一个巨型低轨卫星互联网星座项目,计划在2019年至2024年间在太空搭建由约1.2万颗卫星组成的“星链”网络,其中1584颗将部署在地球上空550千米处的近地轨道,并从2020年开始工作。该卫星仍在工作。
2D Orbit Map
3D Orbit Map
Orbit Altitude Analysis Chart
Orbit Inclination Analysis Chart
Orbit Comprehensive Analysis Chart
View Comprehensive Chart